Location: Mercogliano
(40.9167°N, 14.7333°E)
Time: 08:20:27
(UTC+00:00)

CZ-2C R/B - Pass Details

Date: 21 January 2021
Orbit: 785 x 870 km, 98.2° (Epoch: 08 March)

Event Time Altitude Azimuth Distance (km) Brightness Sun altitude
Rises 05:03:11 0° 155° (SSE) 3,269 6.4 -14.5°
Reaches altitude 10° 05:05:30 10° 152° (SSE) 2,350 5.6 -14.1°
Maximum altitude 05:10:36 60° 73° (ENE) 912 3.2 -13.2°
Drops below altitude 10° 05:15:50 10° 354° (N) 2,409 4.9 -12.2°
Sets 05:18:13 0° 351° (N) 3,358 5.6 -11.8°
